Location: Bothwell
(42.3833°S, 147.0000°E)
Time: 05:36:05
(UTC+10:00)

NUDT-PHONESAT - Visible Passes

Search period start: 25 September 2022 00:00
Search period end: 05 October 2022 01:00
Orbit: 440 x 448 km, 97.4° (Epoch: 24 September)

Date Brightness Start Highest point End Pass type
(mag) Time Alt. Az. Time Alt. Az. Time Alt. Az.
25 Sep ? 19:59:45 10° S 20:02:50 32° WSW 20:05:53 10° NW visible
26 Sep ? 19:22:42 10° SSE 19:26:08 76° ENE 19:29:30 10° N visible
27 Sep ? 18:46:23 10° SE 18:49:10 23° E 18:51:56 10° NNE visible
27 Sep ? 20:19:09 10° SSW 20:21:39 19° WSW 20:24:08 10° WNW visible
28 Sep ? 19:41:34 10° S 19:44:57 57° WSW 19:48:16 10° NNW visible
29 Sep ? 19:04:43 10° SSE 19:07:58 40° E 19:11:11 10° N visible
29 Sep ? 20:38:52 10° SW 20:40:12 12° WSW 20:41:32 10° W visible
30 Sep ? 20:00:24 10° S 20:03:29 32° WSW 20:06:32 10° NW visible
01 Oct ? 19:23:04 10° SSE 19:26:30 76° ENE 19:29:52 10° N visible
02 Oct ? 19:46:30 10° SE 19:49:16 23° E 19:52:02 10° NNE visible
02 Oct ? 21:19:13 10° SSW 21:21:45 19° WSW 21:24:15 10° WNW visible
03 Oct ? 20:41:23 10° S 20:44:46 58° WSW 20:48:06 10° NNW visible
04 Oct ? 20:04:17 10° SSE 20:07:32 39° E 20:10:43 10° N visible
04 Oct ? 21:38:19 10° SW 21:39:44 12° WSW 21:41:11 10° W visible
